[[{"header":{"parameterUnit":"m.s-1","parameterCategory":1,"la1":30.2992,"la2":30.254,"lo1":-89.0895,"lo2":-89.0443,"dy":0.0025,"dx":0.0025,"nx":19,"ny":19,"refTime":"2026-04-15T03:00:00:Z","depth":0,"parameterNumber":2,"parameterNumberName":"U-component_of_WINDS"},"data":[0,0,0,-2.4838,-2.4839,-2.4876,-2.4876,-2.4932,-2.4932,0,0,0,0,0,0,0,0,0,0,0,-2.4831,-2.4832,-2.4838,-2.4839,-2.4876,-2.4876,-2.4932,-2.4932,0,0,0,0,0,0,0,0,0,0,0,-2.4831,-2.4832,-2.4832,-2.4839,-2.4876,-2.4876,-2.4931,-2.4901,0,0,0,0,0,0,0,0,0,0,-2.4863,-2.4861,-2.4832,-2.4832,-2.4839,-2.4876,-2.4876,-2.4899,-2.4903,-2.4919,0,-2.4933,0,-2.4934,-2.4937,-2.4937,0,0,0,-2.4835,-2.4859,-2.4865,-2.4832,-2.4839,-2.4876,-2.4858,-2.4901,-2.4905,-2.4923,-2.4934,-2.4936,-2.4935,-2.4937,-2.4937,-2.5041,-2.5042,0,0,-2.4833,-2.484,-2.4862,-2.4867,-2.4862,-2.4857,-2.4859,-2.4903,-2.4916,-2.4934,-2.4937,-2.4936,-2.4937,-2.4938,-2.504,-2.5041,0,0,0,-2.483,-2.4839,-2.4844,-2.4865,-2.4871,-2.4858,-2.4861,-2.4914,-2.4915,-2.4938,-2.4936,-2.4938,-2.4939,-2.504,-2.5041,-2.5079,0,0,0,-2.4828,-2.4837,-2.4843,-2.4848,-2.4871,-2.4893,-2.487,-2.4912,-2.4916,-2.4936,-2.4938,-2.4939,-2.5039,-2.504,-2.5076,-2.5095,0,0,0,-2.4827,-2.4837,-2.4844,-2.4848,-2.4864,-2.4892,-2.4895,-2.4912,-2.4916,-2.4937,-2.4939,-2.5038,-2.504,-2.5074,-2.5091,-2.5124,0,0,0,-2.4828,-2.4877,-2.4844,-2.4899,-2.4864,-2.4916,-2.4895,-2.4933,-2.4956,-2.4938,-2.5039,-2.5041,-2.5073,-2.5089,-2.5122,-2.5152,-2.5165,0,0,-2.4893,-2.4885,-2.4916,-2.4888,-2.4948,-2.491,-2.4975,-2.4989,-2.4985,-2.5023,-2.5025,-2.5077,-2.5091,-2.5124,-2.5242,-2.5253,0,0,0,-2.4939,-2.4962,-2.4976,-2.4998,-2.5011,-2.5023,-2.5027,-2.5033,-2.5065,-2.5006,-2.5099,-2.5107,-2.5125,-2.5139,-2.5149,-2.5164,-2.5048,-2.5048,-2.5048,-2.5039,-2.5032,-2.5084,-2.5082,-2.5105,-2.5109,-2.5127,-2.5135,-2.5121,-2.5143,-2.5153,-2.5226,-2.5243,-2.525,-2.5266,-2.517,-2.5171,-2.5171,-2.5171,-2.5133,-2.5163,-2.5146,-2.5189,-2.5182,-2.5218,-2.5226,-2.5215,-2.5248,-2.5217,-2.5234,-2.5199,-2.5262,-2.5276,-2.5174,-2.5173,-2.5173,-2.5172,-2.5172,-2.5196,-2.5209,-2.5217,-2.525,-2.5277,-2.5274,-2.5307,-2.53,-2.5293,-2.5309,-2.5319,-2.5319,-2.5316,-2.5315,-2.5315,-2.5316,-2.5316,-2.5316,-2.5316,-2.5258,-2.5265,-2.5294,-2.5314,-2.5328,-2.5346,-2.5354,-2.5368,-2.5382,-2.5374,-2.5374,-2.5357,-2.527,-2.5248,-2.532,-2.5319,-2.5319,-2.5319,-2.5318,-2.5352,-2.533,-2.5374,-2.5389,-2.5413,-2.544,-2.5432,-2.5462,-2.5473,-2.549,-2.5471,-2.5409,-2.5399,-2.5392,-2.5373,-2.5473,-2.5473,-2.5473,-2.5473,-2.5404,-2.5399,-2.5444,-2.5468,-2.5491,-2.5489,-2.554,-2.5548,-2.5552,-2.5559,-2.5544,-2.5519,-2.5512,-2.5507,-2.5497,-2.5479,-2.5604,-2.5604,-2.5604,-2.5461,-2.5459,-2.5503,-2.5507,-2.5526,-2.5543,-2.5591,-2.562,-2.5621,-2.5609,-2.5564,-2.5558,-2.5518,-2.5506,-2.549,-2.5475,-2.5441,0,0]},{"header":{"parameterUnit":"m.s-1","parameterCategory":1,"la1":30.2992,"la2":30.254,"lo1":-89.0895,"lo2":-89.0443,"dy":0.0025,"dx":0.0025,"nx":19,"ny":19,"refTime":"2026-04-15T03:00:00:Z","depth":0,"parameterNumber":3,"parameterNumberName":"V-component_of_WINDS"},"data":[0,0,0,3.3135,3.3136,3.3172,3.3172,3.3203,3.3204,0,0,0,0,0,0,0,0,0,0,0,3.3116,3.3116,3.3135,3.3136,3.3172,3.3172,3.3203,3.3204,0,0,0,0,0,0,0,0,0,0,0,3.3116,3.3116,3.3116,3.3136,3.3172,3.3172,3.3203,3.3181,0,0,0,0,0,0,0,0,0,0,3.3149,3.3122,3.3116,3.3116,3.3136,3.3172,3.3172,3.3181,3.3183,3.3181,0,3.3177,0,3.3191,3.3205,3.3205,0,0,0,3.3142,3.312,3.3138,3.3116,3.3136,3.3172,3.3157,3.3182,3.3184,3.3184,3.3178,3.3179,3.3191,3.3205,3.3205,3.3174,3.3174,0,0,3.314,3.3117,3.3136,3.3139,3.3133,3.3156,3.3158,3.3184,3.3175,3.3178,3.318,3.3192,3.3205,3.3205,3.3175,3.3174,0,0,0,3.313,3.3115,3.3133,3.3138,3.3145,3.3157,3.316,3.3174,3.3182,3.3181,3.3192,3.3205,3.3205,3.3175,3.3175,3.3131,0,0,0,3.3129,3.311,3.3132,3.3118,3.3145,3.316,3.3149,3.318,3.3184,3.3192,3.3205,3.3206,3.3176,3.3175,3.3133,3.3113,0,0,0,3.3116,3.3108,3.3111,3.3117,3.3132,3.316,3.317,3.3182,3.3191,3.3205,3.3206,3.3176,3.3175,3.3135,3.3117,3.3099,0,0,0,3.3096,3.307,3.311,3.3086,3.3131,3.3133,3.317,3.3172,3.3179,3.3205,3.3176,3.3175,3.3136,3.3119,3.3101,3.3079,3.3068,0,0,3.3051,3.3064,3.3052,3.3088,3.3078,3.313,3.3113,3.314,3.3162,3.3169,3.3169,3.3132,3.3117,3.3099,3.3015,3.3006,0,0,0,3.303,3.3021,3.3023,3.3029,3.3051,3.3068,3.3101,3.3112,3.3119,3.3161,3.3122,3.3113,3.3104,3.3095,3.3087,3.308,3.317,3.317,3.317,3.2932,3.2963,3.2946,3.2981,3.2986,3.3022,3.3029,3.305,3.3078,3.3068,3.307,3.3015,3.3003,3.2998,3.299,3.3062,3.3062,3.3061,3.3061,3.2869,3.2861,3.2902,3.2899,3.2931,3.2929,3.2963,3.2983,3.2986,3.3016,3.3009,3.3039,3.2987,3.2982,3.3058,3.3059,3.3059,3.3059,3.306,3.2808,3.281,3.2824,3.2837,3.2844,3.2881,3.2882,3.2912,3.294,3.2933,3.2938,3.2939,3.2943,3.2934,3.2933,3.2933,3.2933,3.2933,3.2933,3.2738,3.2756,3.2754,3.2776,3.2784,3.2799,3.2836,3.2845,3.2863,3.2884,3.2885,3.2914,3.2977,3.2991,3.293,3.2931,3.2931,3.2931,3.2931,3.2661,3.2684,3.268,3.2689,3.2718,3.2723,3.2762,3.2778,3.279,3.279,3.2822,3.2863,3.2879,3.2885,3.2897,3.2815,3.2815,3.2815,3.2815,3.2609,3.2621,3.2624,3.2636,3.2652,3.2687,3.2682,3.2711,3.2744,3.2753,3.277,3.2789,3.2794,3.2806,3.2814,3.2826,3.2728,3.2728,3.2728,3.2564,3.2578,3.2568,3.2601,3.2627,3.2648,3.2644,3.2656,3.2699,3.2725,3.2761,3.2765,3.2797,3.2805,3.2831,3.2842,3.2865,0,0]}]]